GFSGL_sfc_temp_159.txt.gz
Temp
47 47 46 45 46 46 45 44 44 45 45 45 46 47 47 47 48 49 47 48 47 47 48 47 47 49 48 49 51 53 54 55 52 57 61 61 61 60 60 57 57 58 58
46 45 43 43 43 42 42 41 42 42 43 43 44 44 44 44 46 43 43 43 43 43 44 44 45 47 46 47 46 44 45 46 46 44 51 54 58 60 59 60 59 56 57
42 41 40 39 39 39 38 39 39 39 39 40 40 40 40 42 40 40 40 40 41 41 42 42 43 43 43 42 42 43 44 45 43 41 42 48 51 55 57 57 56 58 56
39 37 35 35 35 35 36 36 36 36 36 37 37 38 38 39 37 37 37 37 39 40 41 42 41 41 39 39 40 39 40 39 40 39 39 41 44 47 45 44 49 53 52
36 34 33 33 34 33 33 33 34 34 34 35 35 35 36 37 35 35 36 36 37 38 39 39 40 37 36 38 38 37 37 36 36 36 36 37 38 40 41 45 44 47 50
33 31 32 31 31 31 31 31 32 32 33 33 32 32 33 35 34 35 34 35 36 35 34 35 36 36 35 35 36 36 36 34 34 34 35 35 36 39 41 40 39 38 37
31 29 29 29 28 28 29 30 29 30 31 31 31 31 31 32 33 33 33 34 33 33 33 33 33 35 33 33 33 34 34 35 36 35 33 35 36 39 38 36 35 35 35
28 27 27 27 26 27 27 27 27 28 29 29 29 30 30 31 31 32 32 32 31 31 31 31 30 30 31 30 30 30 31 33 35 36 35 35 37 39 38 38 36 35 37
26 26 26 25 24 25 24 25 26 27 27 27 28 27 27 27 30 31 31 29 29 28 30 29 29 29 29 30 28 26 27 29 33 34 35 37 38 39 39 36 33 33 32
25 24 24 24 23 23 23 24 25 26 26 27 26 27 26 25 28 30 30 28 26 26 27 28 28 28 28 29 26 24 21 24 25 25 28 31 35 37 39 38 36 32 32
22 22 21 21 21 22 22 23 23 23 24 24 24 26 25 26 25 28 29 26 25 24 23 24 26 26 27 28 28 23 24 25 22 22 22 25 28 29 30 32 33 35 33
20 19 18 18 20 21 19 21 21 21 22 22 22 23 24 25 25 26 27 27 27 21 21 23 23 24 25 25 24 25 25 22 19 17 17 18 19 21 24 26 28 32 38
15 13 15 16 18 18 18 18 20 20 20 20 20 19 20 22 22 25 24 25 24 21 21 22 21 22 22 21 21 22 19 17 15 13 14 15 18 21 22 23 25 27 30
12 14 15 16 16 17 20 19 18 17 17 17 16 15 17 18 19 21 21 20 21 19 19 16 18 18 18 18 15 17 16 15 13 12 12 14 17 17 17 20 19 20 21
12 13 14 16 14 16 17 16 16 17 17 14 14 14 13 13 16 22 20 18 17 17 12 10 9 10 9 9 9 10 11 11 9 9 8 10 11 13 14 17 17 18 18
12 13 12 14 14 14 14 15 17 16 16 17 17 16 15 17 19 20 20 19 18 17 6 4 4 5 4 5 4 4 6 6 6 5 6 7 7 9 10 12 15 14 15
9 10 11 11 11 10 11 10 8 13 15 14 15 14 15 15 17 18 17 16 13 11 1 1 1 1 1 2 2 2 1 3 4 3 3 4 5 6 7 7 10 12 12
5 4 8 8 8 8 7 7 6 5 4 6 10 12 12 12 14 15 14 8 1 2 -0 -2 -2 -2 -1 -2 -1 -1 -1 0 1 0 1 1 2 2 3 4 7 9 10
6 6 6 6 5 3 5 5 5 4 4 3 4 7 6 8 12 11 9 -1 -3 -3 -2 -3 -3 -3 -3 -3 -3 -3 -3 -3 -2 -2 -2 -1 0 1 1 3 6 8 9
1 1 1 3 3 2 3 2 2 2 1 1 1 1 0 2 1 -2 -1 -2 -3 -4 -4 -5 -4 -4 -5 -5 -5 -5 -5 -5 -4 -4 -3 -2 -1 -1 -1 1 6 7 7
2 1 -2 0 0 -0 -0 -1 -0 -1 -2 -2 -2 0 7 1 -4 -4 -4 -4 -4 -5 -5 -5 -6 -6 -6 -6 -7 -7 -7 -6 -6 -5 -4 -4 -3 -4 -1 1 7 7 7
1 0 -1 -1 -1 -1 -1 -2 -2 -3 -3 -4 -3 -2 4 -4 -4 -4 -4 -4 -4 -4 -5 -6 -7 -7 -7 -8 -8 -9 -9 -9 -8 -6 -6 -6 -5 -4 -1 3 6 7 7
-1 -2 -2 -2 -2 -5 -5 -3 -4 -4 -4 -4 -4 -5 -5 -5 -5 -6 -6 -5 -6 -6 -6 -7 -8 -9 -8 -8 -7 -8 -10 -9 -7 -7 -8 -8 -7 -5 -0 4 6 6 6
-2 -3 -3 -3 -3 -4 -4 -4 -4 -6 -7 -6 -6 -6 -6 -6 -6 -7 -7 -6 -6 -7 -8 -8 -9 -10 -10 -10 -9 -8 -7 -7 -7 -7 -7 -8 -6 -1 4 5 6 6 6
-3 -4 -4 -4 -5 -5 -5 -5 -5 -5 -6 -6 -6 -6 -6 -6 -7 -7 -7 -7 -8 -9 -10 -10 -10 -10 -11 -11 -11 -10 -10 -7 -8 -6 -4 -1 2 3 5 6 6 6 6
-4 -5 -5 -5 -6 -6 -7 -6 -6 -6 -7 -7 -7 -7 -7 -8 -8 -8 -8 -9 -10 -11 -11 -11 -11 -12 -11 -10 -10 -7 -6 -1 -0 2 4 4 4 6 7 5 5 5 6

GFSGL_sfc_temp_162.txt.gz
Temp
41 40 39 39 40 40 39 38 39 40 40 41 42 42 42 41 41 40 41 40 41 41 41 41 41 42 42 41 40 41 41 41 37 39 42 45 45 47 50 53 54 57 57
40 39 38 38 38 36 36 37 37 37 38 38 39 39 39 38 38 38 37 38 38 39 39 40 40 42 38 38 38 38 37 39 37 35 39 39 40 43 44 46 49 52 53
37 36 35 34 34 33 34 34 35 35 36 37 37 37 36 35 36 37 37 37 38 38 37 37 37 36 34 34 35 35 36 37 36 34 33 38 40 41 40 42 44 45 49
35 33 31 32 32 33 33 33 33 34 34 34 34 35 34 35 35 34 34 36 36 36 36 36 35 34 32 32 33 32 33 31 31 31 31 32 34 38 39 37 37 41 41
32 31 30 31 31 31 31 31 31 32 33 33 32 33 34 34 35 33 33 34 34 33 34 34 34 32 34 33 32 30 30 29 28 28 27 28 29 30 31 35 34 36 38
30 28 30 29 29 29 29 29 30 30 31 31 30 30 30 33 34 34 33 32 32 31 30 30 32 31 31 31 32 33 32 28 28 28 29 28 29 30 32 31 32 31 29
28 28 28 28 27 27 28 27 27 27 28 28 28 28 28 29 33 33 32 31 29 29 29 28 29 30 28 29 31 30 30 31 32 30 26 26 25 29 30 29 30 30 30
27 26 27 26 26 26 26 26 26 26 26 25 26 27 26 28 31 32 30 29 28 28 27 27 26 27 27 28 28 26 26 27 28 29 27 27 29 31 31 31 31 32 34
26 26 26 26 24 24 23 23 24 25 25 25 26 24 24 25 30 31 28 26 26 25 26 26 26 25 28 29 26 23 22 24 29 28 28 29 30 31 30 25 22 21 21
26 25 25 24 23 22 22 22 23 24 25 25 25 24 24 23 28 30 28 24 23 23 24 25 26 25 27 28 24 20 18 22 21 19 20 22 25 24 26 24 21 17 18
23 22 21 22 21 21 20 20 20 20 22 19 21 21 22 23 24 28 28 24 23 20 20 21 22 25 26 26 26 20 21 22 17 15 15 17 18 19 20 21 22 20 18
20 19 18 18 22 20 13 17 17 16 15 15 15 17 19 22 24 26 26 26 25 18 18 20 20 23 23 23 20 22 22 18 12 10 10 11 12 14 16 18 20 21 22
17 15 15 17 18 17 13 15 13 13 12 14 16 13 14 19 19 23 23 23 23 20 20 20 19 20 20 18 18 18 14 11 8 5 6 8 10 13 15 15 16 16 17
13 14 15 15 15 15 18 18 13 10 10 12 10 8 9 13 15 18 19 17 20 18 16 12 15 15 14 14 11 12 10 10 7 6 5 6 9 8 8 11 9 10 10
13 14 15 13 12 14 15 13 15 15 14 5 2 5 1 0 13 21 20 17 15 17 3 -1 2 5 4 4 4 5 6 5 3 4 2 2 3 4 5 7 7 7 6
12 13 12 12 11 12 11 10 18 17 17 18 18 14 10 17 19 21 21 20 19 17 -9 -11 -4 -0 -0 0 -1 -0 1 0 1 1 0 -0 -0 0 1 3 4 4 3
11 11 9 11 11 9 9 8 3 10 16 15 15 15 16 16 17 19 18 17 12 6 -15 -14 -9 -4 -4 -2 -2 -3 -4 -1 -1 -2 -2 -2 -2 -1 -1 -1 0 2 1
5 8 8 7 7 6 7 6 5 1 -2 -1 9 12 13 13 15 16 15 4 -13 -9 -17 -17 -17 -13 -6 -6 -5 -6 -5 -4 -4 -4 -4 -4 -4 -4 -4 -4 -2 -2 -1
6 5 6 6 5 5 5 4 3 2 1 -3 -3 3 3 9 11 11 9 -13 -18 -19 -18 -18 -18 -16 -14 -10 -8 -8 -9 -8 -7 -7 -7 -7 -6 -5 -6 -5 -4 -2 -1
3 4 5 4 2 2 2 0 1 -1 -4 -5 -7 -7 -9 -9 -12 -16 -17 -19 -20 -20 -20 -20 -17 -18 -19 -17 -11 -12 -11 -10 -10 -9 -9 -8 -7 -6 -7 -7 -5 -4 -2
2 -1 2 0 -1 -2 -3 -4 -5 -8 -10 -11 -10 -8 7 -6 -18 -20 -16 -18 -20 -17 -17 -19 -17 -16 -19 -17 -17 -16 -13 -12 -11 -11 -10 -9 -8 -9 -8 -7 -6 -3 1
1 -1 -2 -2 -3 -5 -7 -8 -9 -11 -14 -15 -11 -13 5 -17 -19 -16 -17 -16 -15 -16 -17 -17 -15 -18 -12 -12 -12 -13 -13 -13 -12 -11 -11 -10 -10 -9 -9 -8 -6 -3 2
-2 -3 -4 -6 -6 -5 -10 -14 -15 -17 -15 -16 -18 -15 -19 -17 -17 -18 -16 -15 -16 -15 -16 -21 -17 -12 -12 -15 -13 -12 -13 -13 -12 -10 -11 -11 -11 -10 -9 -8 -4 0 2
-4 -5 -7 -10 -12 -14 -16 -17 -17 -13 -17 -17 -17 -16 -15 -15 -16 -15 -15 -15 -16 -15 -17 -16 -14 -14 -13 -13 -12 -12 -12 -11 -10 -10 -10 -10 -11 -10 -8 -3 1 3 3
-9 -11 -12 -14 -17 -17 -19 -20 -19 -18 -16 -16 -15 -15 -15 -16 -15 -15 -15 -15 -15 -15 -13 -13 -13 -14 -15 -16 -15 -14 -12 -9 -11 -10 -10 -9 -7 -5 -1 0 3 3 3
-15 -17 -19 -20 -21 -21 -20 -18 -17 -16 -16 -15 -15 -15 -15 -15 -14 -14 -14 -16 -15 -13 -14 -12 -13 -15 -15 -14 -13 -10 -8 -4 -3 -1 2 1 1 1 1 1 2 3 3

GFSGL_sfc_temp_165.txt.gz
Temp
38 38 37 36 36 36 36 36 36 37 37 38 38 38 37 38 39 39 39 39 39 39 40 38 38 38 37 37 38 37 36 35 32 34 37 39 38 38 41 42 43 44 45
37 36 35 35 34 33 33 33 34 34 36 36 37 36 36 36 37 37 37 38 38 37 37 37 36 37 34 35 35 34 34 34 31 29 32 33 34 36 37 36 40 43 41
35 33 33 32 32 31 31 32 33 33 33 35 35 34 34 35 35 35 37 36 35 35 35 34 33 32 32 32 32 31 32 33 31 29 28 32 32 33 32 34 35 35 39
32 31 30 30 30 30 31 31 31 32 32 33 34 34 34 34 34 34 35 34 34 34 33 33 31 31 29 29 30 29 30 29 29 28 28 29 29 31 29 27 27 31 31
30 29 28 29 29 29 29 29 30 30 31 31 31 32 33 34 34 31 32 32 31 30 30 32 30 29 31 31 30 29 28 27 26 25 25 25 24 24 24 26 26 28 30
29 28 28 28 29 28 28 28 29 29 29 29 28 28 29 33 34 33 31 29 29 29 28 28 29 28 29 31 31 31 30 27 25 24 23 22 23 23 25 24 25 24 22
28 28 28 28 27 27 27 27 27 26 27 27 27 27 27 30 33 32 31 29 28 27 27 27 28 28 27 29 29 29 28 29 29 26 22 22 22 24 24 23 22 21 20
27 27 27 27 26 27 27 26 26 26 25 25 26 26 26 30 32 30 29 28 27 26 26 26 26 25 27 28 26 25 24 26 27 26 24 23 25 26 24 24 21 19 20
26 26 27 26 25 25 25 24 25 25 25 25 25 24 24 26 31 30 27 25 25 24 26 25 25 24 28 29 24 21 21 23 26 25 24 25 26 26 25 20 14 13 11
26 27 27 26 25 24 24 23 24 25 25 26 25 24 23 23 29 29 26 24 22 22 24 24 24 25 27 27 21 19 17 20 17 15 16 19 20 20 22 20 16 11 11
27 25 24 24 23 23 22 22 22 23 23 21 21 21 21 22 25 27 28 24 22 19 20 20 21 24 25 24 22 20 19 18 13 10 10 12 14 14 15 16 17 15 11
21 20 20 20 22 21 20 20 21 21 19 18 17 17 19 20 24 25 26 25 24 16 18 19 18 22 22 21 19 21 18 14 8 5 5 6 8 8 11 12 14 15 15
18 18 17 19 19 19 18 18 18 19 17 17 16 13 15 17 18 22 23 22 22 19 20 18 18 18 17 15 16 16 11 8 5 1 2 4 7 8 9 9 10 10 11
16 16 16 16 16 18 19 19 17 14 14 14 13 10 11 13 15 17 19 18 19 17 13 10 13 13 13 11 8 8 8 6 4 3 2 3 5 4 3 6 3 4 3
15 15 15 15 16 16 17 16 16 16 15 11 9 10 6 7 14 21 20 17 14 16 -1 -3 -1 2 2 3 2 3 3 3 1 1 -1 -1 -0 1 1 3 2 1 -1
13 14 14 14 15 14 14 15 20 19 21 20 19 15 14 17 19 20 21 20 17 15 -11 -13 -7 -2 -2 -1 -2 -2 -1 -2 -1 -2 -3 -3 -3 -3 -3 -2 -0 -2 -3
13 12 13 13 13 12 12 11 10 14 18 18 17 16 16 16 17 19 18 15 12 3 -17 -16 -12 -8 -6 -4 -4 -4 -5 -4 -3 -4 -5 -5 -5 -6 -6 -6 -4 -4 -5
11 11 11 11 10 10 9 9 8 6 4 5 10 12 14 13 15 16 15 2 -14 -12 -20 -20 -19 -17 -13 -10 -8 -8 -8 -7 -7 -7 -8 -8 -9 -9 -9 -8 -7 -7 -7
8 8 8 7 8 8 7 6 5 5 3 1 1 4 3 9 11 11 8 -15 -18 -20 -21 -21 -20 -19 -17 -16 -14 -14 -13 -13 -11 -12 -12 -12 -11 -11 -10 -9 -8 -8 -7
7 7 6 5 3 4 5 4 3 3 1 -0 -2 -4 -9 -9 -11 -15 -18 -20 -22 -21 -19 -21 -20 -23 -21 -20 -19 -19 -20 -22 -18 -19 -16 -13 -12 -11 -11 -11 -10 -10 -9
4 3 4 3 2 2 2 1 1 -0 -2 -5 -8 -7 6 -7 -13 -18 -19 -20 -20 -20 -21 -22 -21 -21 -20 -20 -22 -22 -22 -17 -15 -16 -16 -14 -13 -13 -12 -11 -11 -10 -9
2 1 0 1 1 -0 -1 -2 -3 -5 -7 -9 -10 -12 5 -14 -17 -18 -18 -18 -19 -20 -20 -21 -19 -19 -18 -18 -18 -21 -21 -16 -16 -16 -17 -15 -13 -13 -13 -12 -12 -11 -9
1 -0 -1 -2 -2 -3 -4 -8 -10 -11 -12 -14 -15 -15 -18 -18 -18 -19 -19 -19 -19 -18 -20 -23 -20 -17 -16 -18 -16 -16 -16 -15 -14 -15 -15 -15 -14 -14 -13 -12 -12 -11 -8
-3 -4 -5 -8 -9 -12 -13 -14 -16 -13 -16 -17 -18 -17 -17 -18 -21 -19 -19 -18 -19 -18 -20 -19 -17 -17 -15 -16 -18 -16 -15 -14 -13 -14 -16 -14 -12 -12 -13 -12 -11 -8 -3
-14 -14 -13 -12 -13 -12 -15 -16 -17 -21 -20 -20 -20 -22 -20 -19 -20 -20 -18 -18 -18 -17 -15 -15 -18 -16 -17 -18 -17 -16 -14 -10 -12 -11 -12 -13 -14 -14 -13 -11 -6 -2 -2
-14 -15 -16 -21 -23 -25 -23 -21 -21 -21 -20 -19 -19 -19 -20 -19 -18 -17 -15 -18 -18 -17 -16 -15 -15 -17 -17 -16 -16 -14 -12 -7 -6 -6 -7 -7 -6 -5 -3 -2 -2 -3 -1

GFSGL_sfc_temp_168.txt.gz
Temp
37 36 35 35 35 35 34 34 34 35 36 36 35 35 35 35 36 36 36 37 37 37 37 36 35 36 34 35 36 35 33 31 29 30 34 35 34 34 35 36 37 37 38
36 35 34 34 33 32 32 32 33 33 34 34 34 34 34 34 35 35 35 35 35 35 34 34 33 35 33 34 32 31 31 31 28 27 29 30 31 32 32 31 33 36 34
34 33 32 31 30 30 30 31 32 32 32 33 33 32 32 33 33 34 35 34 34 34 34 31 32 31 29 30 30 28 28 31 28 28 27 29 28 28 27 28 29 30 34
32 31 30 29 29 29 29 30 30 31 31 31 31 32 32 32 32 33 33 32 32 32 31 30 29 28 28 28 29 28 29 28 28 26 26 25 25 26 25 23 23 26 26
30 29 28 29 28 28 28 29 29 30 29 30 30 30 32 32 33 30 31 30 29 28 29 28 28 28 31 31 29 27 27 26 25 24 22 22 22 22 21 23 21 22 23
29 28 27 28 28 28 28 28 29 28 28 29 29 29 29 33 34 33 31 29 29 29 27 28 27 26 29 31 31 30 29 26 24 22 21 21 21 21 21 21 20 18 16
29 28 28 28 28 28 28 28 27 27 27 27 27 28 28 29 33 32 31 29 28 27 27 28 27 28 27 28 28 28 27 29 28 24 20 20 20 22 21 19 19 17 16
28 27 27 27 27 27 27 27 26 26 25 26 26 27 28 30 31 31 29 28 27 26 26 26 25 25 28 27 25 24 24 26 24 24 21 21 23 23 22 21 17 15 15
27 27 27 26 25 25 24 25 26 26 25 25 27 26 26 28 30 29 28 27 25 25 25 24 25 25 28 27 22 22 21 22 24 22 22 23 23 23 22 16 8 7 6
27 27 27 26 25 24 24 24 26 26 25 26 25 25 25 27 30 28 27 25 23 23 24 23 25 25 26 25 20 20 16 17 16 12 14 17 18 17 19 16 13 5 5
27 26 25 25 24 24 23 23 24 24 24 22 22 22 22 24 27 29 27 25 23 20 21 20 20 24 24 23 21 20 17 15 10 8 8 10 11 12 12 13 13 11 6
24 22 21 21 23 22 20 20 22 22 21 20 19 19 20 22 25 26 26 25 24 18 18 18 19 21 21 20 18 19 16 11 5 1 1 4 6 7 8 9 11 11 11
20 18 18 20 21 21 19 20 20 21 20 18 18 17 17 18 20 24 24 23 23 19 19 18 18 18 16 14 15 14 9 6 3 -4 0 3 5 6 7 6 7 7 7
18 18 19 19 19 19 20 20 19 19 18 18 16 15 15 16 17 18 19 20 21 16 13 11 14 13 13 10 7 7 7 5 3 1 1 2 3 2 1 4 1 2 -0
19 18 18 18 17 17 18 18 18 19 19 16 14 14 11 12 15 21 18 16 15 12 3 2 2 3 2 2 2 2 2 1 -1 -0 -2 -3 -2 -1 -1 1 -1 -2 -5
16 16 15 15 16 16 15 16 21 20 21 20 19 16 15 18 21 22 22 20 19 12 -1 -3 -2 -1 -2 -2 -3 -3 -2 -3 -3 -4 -5 -5 -5 -5 -5 -4 -3 -6 -7
15 14 14 14 14 13 14 14 12 18 22 22 21 20 18 18 19 20 20 16 14 5 -5 -6 -5 -5 -5 -4 -4 -5 -7 -5 -5 -7 -7 -7 -7 -8 -9 -9 -8 -7 -8
13 14 13 13 12 12 12 12 11 10 11 11 15 15 17 15 16 18 15 7 -2 -4 -9 -12 -13 -13 -9 -9 -9 -9 -9 -9 -10 -9 -10 -12 -15 -14 -13 -12 -11 -11 -11
11 11 11 10 10 10 10 9 8 7 6 5 4 9 9 11 13 14 9 -3 -6 -9 -13 -16 -13 -14 -17 -18 -17 -18 -18 -17 -16 -19 -21 -19 -16 -21 -16 -14 -12 -11 -11
8 9 8 7 7 7 7 6 5 5 4 3 2 2 -0 0 -1 -4 -6 -9 -11 -13 -16 -17 -19 -20 -23 -25 -24 -25 -23 -25 -22 -22 -22 -21 -18 -21 -15 -15 -14 -14 -13
6 6 6 5 5 5 5 4 4 3 2 1 1 -0 4 -2 -4 -9 -11 -14 -15 -17 -18 -20 -20 -22 -26 -26 -27 -27 -25 -22 -22 -22 -22 -21 -22 -19 -17 -14 -14 -14 -13
3 3 3 3 3 3 2 3 2 1 -1 -2 -4 -5 8 -7 -11 -13 -17 -19 -18 -19 -19 -20 -21 -22 -20 -21 -21 -23 -22 -22 -22 -23 -21 -21 -19 -17 -16 -15 -15 -15 -14
3 1 1 1 1 1 -0 -2 -3 -4 -6 -9 -11 -12 -17 -19 -21 -21 -18 -19 -22 -23 -24 -27 -22 -20 -20 -20 -20 -18 -18 -17 -16 -22 -22 -21 -18 -17 -16 -16 -16 -15 -14
2 1 -1 -6 -7 -9 -10 -12 -14 -13 -18 -19 -22 -23 -20 -22 -22 -21 -22 -23 -24 -23 -24 -22 -21 -20 -18 -19 -21 -21 -19 -16 -16 -16 -20 -17 -16 -16 -15 -15 -15 -14 -13
-7 -8 -10 -11 -15 -14 -19 -21 -22 -24 -24 -22 -23 -26 -24 -23 -23 -24 -23 -23 -23 -22 -19 -19 -19 -19 -19 -18 -18 -19 -18 -11 -11 -12 -16 -17 -15 -15 -14 -14 -14 -13 -12
-14 -14 -16 -17 -20 -23 -22 -21 -22 -22 -22 -20 -21 -22 -21 -22 -21 -22 -23 -23 -21 -20 -19 -18 -17 -19 -19 -18 -18 -16 -14 -9 -11 -12 -15 -15 -15 -15 -14 -14 -12 -9 -5

GFSGL_sfc_temp_171.txt.gz
Temp
37 36 35 34 35 35 34 34 34 35 35 34 34 34 35 35 35 35 35 35 34 34 34 33 32 33 32 32 32 31 29 30 29 29 31 32 31 30 30 30 32 32 33
36 35 34 34 33 32 32 32 33 32 33 33 33 33 33 33 34 34 34 33 33 32 31 31 31 34 30 30 29 28 28 28 28 27 28 28 28 28 27 27 30 33 30
35 34 32 32 31 30 30 31 32 31 31 32 32 31 31 32 32 33 33 32 32 31 31 30 29 29 28 27 26 26 27 30 27 27 26 27 27 26 25 26 27 27 30
34 32 31 30 30 30 30 30 30 30 30 30 31 31 31 31 32 32 32 31 31 30 30 29 28 28 27 27 28 27 28 27 27 25 25 24 24 26 22 21 21 23 23
32 31 30 30 29 28 29 29 29 29 30 30 30 30 30 31 33 30 31 29 29 27 28 28 28 29 32 30 28 26 26 25 25 24 22 22 21 21 19 21 19 20 21
32 31 29 29 28 28 28 29 29 29 28 29 29 29 29 33 35 34 31 29 29 28 26 26 26 26 30 31 31 30 29 25 23 22 21 20 20 21 20 19 18 16 14
32 30 29 28 28 28 28 28 28 27 27 27 27 28 28 30 34 33 32 29 28 27 27 27 27 28 27 27 29 28 28 28 27 22 20 19 19 20 20 18 17 15 15
31 29 29 28 27 27 27 27 26 26 26 26 27 27 28 30 33 32 30 28 27 27 26 25 25 25 27 26 25 24 25 24 23 23 20 21 22 22 20 18 14 12 12
30 29 29 28 27 26 25 25 26 26 25 26 27 28 27 29 32 31 29 27 26 25 26 25 25 25 27 26 23 22 22 20 23 21 22 22 22 22 21 13 5 3 -2
31 30 29 28 26 25 25 25 25 26 26 27 26 26 27 28 30 30 29 26 24 24 24 24 26 25 26 24 22 20 16 16 15 11 13 16 17 16 17 15 11 -5 -2
28 27 26 26 25 25 25 24 24 24 24 24 23 23 24 27 28 29 28 26 24 22 22 21 22 25 24 23 22 20 17 13 10 7 7 9 10 10 11 11 12 10 3
24 24 24 23 24 23 24 24 24 24 22 21 20 20 22 23 27 28 27 26 25 21 19 20 20 23 22 21 19 19 15 10 4 1 0 4 5 6 7 8 9 9 10
22 20 21 22 23 23 23 22 22 22 21 19 19 18 18 20 23 26 26 25 23 20 19 20 21 20 19 16 16 14 9 6 2 -5 -0 3 4 5 6 5 6 6 6
20 19 19 20 21 22 23 23 22 21 20 19 18 17 17 17 18 19 21 21 22 18 16 14 16 15 14 10 8 8 7 5 3 1 1 1 3 2 0 2 -1 -0 -3
17 17 19 20 20 20 21 21 21 22 22 19 18 17 15 14 17 20 19 17 14 13 6 6 6 6 5 5 4 3 2 1 -1 -1 -3 -4 -2 -2 -2 -1 -2 -6 -11
16 17 18 18 18 18 17 18 22 22 24 23 21 18 18 20 23 24 24 23 20 16 3 2 3 3 3 2 1 -1 -1 -3 -3 -4 -6 -6 -6 -6 -6 -6 -5 -13 -10
17 16 16 16 15 15 15 15 14 20 23 23 23 22 20 21 23 23 24 22 20 11 0 1 1 1 -0 -0 -2 -3 -4 -4 -5 -8 -7 -10 -9 -10 -12 -12 -10 -9 -12
15 16 15 15 15 15 15 15 16 16 15 16 21 20 21 21 21 22 21 17 5 1 -2 -4 -4 -5 -5 -5 -5 -6 -7 -8 -10 -10 -13 -17 -21 -19 -20 -17 -14 -18 -17
13 13 13 13 13 14 13 12 12 11 10 6 7 15 15 18 18 21 18 2 0 -3 -6 -9 -10 -9 -9 -10 -10 -16 -18 -19 -19 -22 -26 -26 -26 -26 -25 -20 -17 -14 -14
10 11 10 9 9 9 9 9 8 8 7 6 5 6 2 4 4 2 -0 -2 -4 -5 -7 -10 -11 -13 -17 -22 -23 -25 -28 -30 -29 -29 -27 -26 -25 -26 -22 -24 -23 -19 -18
7 7 8 7 7 7 7 7 7 6 5 5 4 3 6 1 1 -1 -3 -6 -6 -8 -9 -12 -16 -19 -22 -26 -31 -32 -31 -25 -28 -26 -27 -25 -28 -30 -25 -20 -18 -20 -17
6 5 5 5 5 5 5 5 5 4 3 2 -0 0 13 1 -1 -3 -6 -9 -12 -14 -15 -17 -19 -21 -23 -26 -25 -26 -26 -24 -24 -25 -25 -24 -27 -27 -27 -22 -20 -18 -18
4 3 3 3 3 3 2 2 1 1 0 -1 -2 -3 -6 -9 -11 -13 -14 -15 -18 -20 -24 -28 -27 -26 -26 -24 -23 -21 -21 -18 -18 -22 -23 -26 -26 -24 -26 -22 -20 -20 -19
3 3 2 2 1 1 -0 -2 -4 -5 -8 -10 -13 -14 -12 -15 -16 -15 -17 -21 -26 -27 -30 -26 -24 -22 -23 -22 -23 -23 -20 -18 -24 -21 -23 -23 -21 -22 -26 -22 -19 -18 -17
-1 -1 -4 -7 -10 -11 -13 -15 -15 -16 -17 -15 -17 -18 -18 -19 -21 -23 -24 -26 -25 -26 -23 -22 -22 -21 -20 -19 -20 -22 -21 -12 -13 -19 -21 -22 -22 -22 -19 -18 -16 -15 -16
-15 -16 -17 -18 -18 -19 -17 -16 -17 -18 -18 -18 -19 -21 -22 -22 -22 -25 -25 -26 -24 -22 -21 -21 -21 -20 -20 -19 -19 -16 -15 -9 -13 -15 -16 -17 -18 -17 -17 -17 -18 -16 -15

GFSGL_sfc_temp_174.txt.gz
Temp
37 37 36 35 35 35 35 35 35 35 35 35 35 35 35 35 35 35 34 34 33 32 32 32 31 31 30 30 30 30 29 30 30 28 30 30 29 28 29 29 30 30 29
37 36 35 34 33 33 33 33 33 33 34 33 33 33 33 34 34 34 34 32 31 31 31 30 30 32 28 28 28 28 28 28 29 28 27 27 27 26 26 26 29 31 27
35 34 33 32 31 31 31 31 32 32 32 32 33 32 32 32 32 32 32 31 31 30 30 28 28 29 27 27 26 26 27 29 27 27 25 26 26 25 25 25 26 26 29
35 33 32 32 31 30 30 30 31 31 30 31 31 31 31 31 32 32 31 31 30 30 30 29 28 28 27 27 28 27 28 26 26 25 25 24 24 25 22 20 20 23 22
34 32 33 32 30 29 29 30 30 30 30 30 30 30 30 31 33 31 31 30 28 27 28 29 29 29 31 30 27 25 26 25 24 24 22 22 22 22 19 21 20 19 20
34 34 33 31 30 30 29 29 29 29 29 29 29 29 29 33 35 35 32 30 29 28 26 27 27 27 31 32 32 31 29 25 23 23 21 21 20 20 20 19 18 15 14
34 34 31 31 30 29 29 28 28 27 27 27 27 28 29 31 36 35 33 30 29 28 27 27 27 28 26 28 30 30 28 29 26 23 20 19 19 19 20 17 16 15 16
32 33 31 31 30 28 27 27 27 27 26 26 26 27 28 31 35 34 32 29 27 27 27 26 26 26 27 26 25 25 24 23 22 22 21 21 21 21 19 16 14 11 10
31 31 30 30 28 26 26 25 25 25 25 26 27 27 27 29 34 33 30 28 27 26 27 26 26 26 28 28 25 24 21 20 22 22 23 23 22 22 20 11 -0 -2 -2
30 30 29 28 28 26 26 25 26 26 27 27 27 27 27 28 33 33 30 27 25 24 25 25 26 26 26 26 23 21 18 16 14 12 14 16 16 16 17 14 10 -6 -4
29 27 26 26 26 26 25 25 25 25 26 26 25 25 26 27 29 33 30 27 25 23 22 22 25 27 26 25 23 21 18 14 11 8 9 9 10 10 10 10 11 9 2
25 25 24 23 26 25 24 23 24 24 24 23 22 22 22 25 28 31 31 29 28 23 21 21 22 26 24 22 21 20 17 11 7 5 6 5 6 5 6 7 8 8 8
23 24 22 24 24 24 23 22 23 24 23 21 21 20 19 22 25 30 29 27 26 22 21 21 24 24 22 20 19 16 11 8 5 3 3 4 5 5 6 4 5 4 4
19 20 21 22 21 23 25 24 24 22 21 21 20 19 19 19 20 22 23 23 24 20 21 19 20 17 15 12 11 10 9 7 6 4 2 2 3 2 0 2 -2 -1 -7
16 16 18 20 21 20 22 22 23 24 24 21 21 20 17 17 18 22 20 18 15 15 10 10 9 8 7 6 5 5 5 4 2 1 -1 -2 -2 -1 -2 -2 -3 -10 -14
15 16 16 17 18 19 19 20 27 26 28 27 26 22 21 23 25 24 24 23 22 19 6 5 5 6 6 5 4 3 2 1 -0 -2 -4 -4 -5 -6 -6 -7 -7 -15 -16
15 16 18 18 18 17 18 18 17 23 27 27 26 25 23 23 25 25 25 25 23 16 4 5 5 4 4 4 3 1 -0 -1 -2 -5 -6 -8 -9 -11 -14 -15 -12 -11 -17
13 16 16 16 16 17 17 17 18 18 17 19 24 23 24 24 25 25 26 24 12 6 2 2 2 2 1 0 -0 -2 -2 -4 -6 -7 -10 -16 -22 -20 -22 -21 -17 -23 -24
12 13 14 14 15 15 15 15 16 16 13 11 17 17 18 24 24 24 23 9 5 1 0 -1 -1 -2 -2 -3 -4 -6 -8 -11 -13 -19 -24 -25 -26 -27 -29 -25 -22 -18 -19
6 11 11 11 11 11 12 11 10 10 9 10 10 7 7 11 12 4 3 3 2 1 -1 -2 -4 -5 -6 -8 -11 -15 -19 -24 -24 -24 -24 -26 -26 -27 -25 -29 -28 -26 -27
4 5 9 8 9 9 9 9 9 9 8 7 6 6 10 7 5 4 1 -0 -1 -1 -3 -4 -6 -9 -12 -15 -20 -23 -22 -20 -23 -26 -28 -27 -32 -32 -29 -24 -26 -28 -24
5 4 6 6 6 6 6 7 6 6 5 4 2 5 16 3 3 2 1 -1 -3 -4 -6 -9 -13 -15 -15 -17 -19 -22 -22 -21 -26 -26 -26 -28 -31 -33 -32 -29 -27 -26 -27
3 2 3 4 4 5 4 4 4 4 3 3 2 2 1 1 1 -0 -2 -6 -10 -13 -16 -17 -17 -20 -22 -23 -22 -20 -20 -19 -19 -23 -25 -29 -30 -28 -31 -28 -29 -30 -29
2 2 1 1 1 2 3 2 2 2 1 -0 -2 -3 -3 -6 -8 -9 -12 -15 -17 -21 -23 -21 -21 -21 -23 -24 -25 -23 -21 -19 -26 -23 -24 -25 -25 -26 -30 -30 -26 -23 -21
1 1 1 1 -0 -0 -2 -3 -6 -10 -11 -11 -11 -10 -15 -17 -19 -21 -21 -22 -24 -25 -22 -23 -23 -21 -20 -20 -20 -23 -23 -12 -15 -22 -25 -27 -26 -28 -30 -27 -22 -22 -21
-3 -7 -10 -9 -9 -10 -10 -11 -13 -12 -12 -12 -14 -18 -19 -19 -19 -21 -22 -25 -25 -23 -22 -23 -22 -20 -21 -20 -20 -17 -16 -10 -16 -15 -22 -23 -24 -22 -22 -22 -23 -20 -18